Year,Month,Day,Hour,Minute,Value (Times are PST for temperature in C)
2010,07,07,00,00,14.60
2010,07,07,00,01,14.60
2010,07,07,00,02,14.60
2010,07,07,00,03,14.60
2010,07,07,00,04,14.60
2010,07,07,00,05,14.60
2010,07,07,00,06,14.50
2010,07,07,00,07,14.50
2010,07,07,00,08,14.50
2010,07,07,00,09,14.50
2010,07,07,00,10,14.50
2010,07,07,00,11,14.40
2010,07,07,00,12,14.40
2010,07,07,00,13,14.40
2010,07,07,00,14,14.40
2010,07,07,00,15,14.40
2010,07,07,00,16,14.40
2010,07,07,00,17,14.40
2010,07,07,00,18,14.40
2010,07,07,00,19,14.30
2010,07,07,00,20,14.30
2010,07,07,00,21,14.30
2010,07,07,00,22,14.30
2010,07,07,00,23,14.30
2010,07,07,00,24,14.30
2010,07,07,00,25,14.30
2010,07,07,00,26,14.30
2010,07,07,00,27,14.20
2010,07,07,00,28,14.20
2010,07,07,00,29,14.20
2010,07,07,00,30,14.20
2010,07,07,00,31,14.20
2010,07,07,00,32,14.20
2010,07,07,00,33,14.20
2010,07,07,00,34,14.20
2010,07,07,00,35,14.20
2010,07,07,00,36,14.10
2010,07,07,00,37,14.10
2010,07,07,00,38,14.10
2010,07,07,00,39,14.10
2010,07,07,00,40,14.10
2010,07,07,00,41,14.10
2010,07,07,00,42,14.10
2010,07,07,00,43,14.10
2010,07,07,00,44,14.10
2010,07,07,00,45,14.10
2010,07,07,00,46,14.10
2010,07,07,00,47,14.10
2010,07,07,00,48,14.10
2010,07,07,00,49,14.10
2010,07,07,00,50,14.10
2010,07,07,00,51,14.00
2010,07,07,00,52,14.00
2010,07,07,00,53,14.00
2010,07,07,00,54,14.00
2010,07,07,00,55,13.90
2010,07,07,00,56,13.90
2010,07,07,00,57,13.90
2010,07,07,00,58,13.90
2010,07,07,00,59,13.90
2010,07,07,01,00,13.90
2010,07,07,01,01,13.90
2010,07,07,01,02,13.90
2010,07,07,01,03,13.90
2010,07,07,01,04,13.90
2010,07,07,01,05,13.90
2010,07,07,01,06,13.90
2010,07,07,01,07,13.90
2010,07,07,01,08,13.90
2010,07,07,01,09,13.90
2010,07,07,01,10,13.80
2010,07,07,01,11,13.80
2010,07,07,01,12,13.80
2010,07,07,01,13,13.80
2010,07,07,01,14,13.80
2010,07,07,01,15,13.80
2010,07,07,01,16,13.80
2010,07,07,01,17,13.80
2010,07,07,01,18,13.80
2010,07,07,01,19,13.80
2010,07,07,01,20,13.80
2010,07,07,01,21,13.80
2010,07,07,01,22,13.70
2010,07,07,01,23,13.70
2010,07,07,01,24,13.70
2010,07,07,01,25,13.70
2010,07,07,01,26,13.70
2010,07,07,01,27,13.70
2010,07,07,01,28,13.70
2010,07,07,01,29,13.70
2010,07,07,01,30,13.70
2010,07,07,01,31,13.70
2010,07,07,01,32,13.70
2010,07,07,01,33,13.60
2010,07,07,01,34,13.60
2010,07,07,01,35,13.60
2010,07,07,01,36,13.60
2010,07,07,01,37,13.60
2010,07,07,01,38,13.60
2010,07,07,01,39,13.50
2010,07,07,01,40,13.50
2010,07,07,01,41,13.50
2010,07,07,01,42,13.50
2010,07,07,01,43,13.50
2010,07,07,01,44,13.40
2010,07,07,01,45,13.40
2010,07,07,01,46,13.40
2010,07,07,01,47,13.40
2010,07,07,01,48,13.40
2010,07,07,01,49,13.40
2010,07,07,01,50,13.40
2010,07,07,01,51,13.40
2010,07,07,01,52,13.30
2010,07,07,01,53,13.30
2010,07,07,01,54,13.30
2010,07,07,01,55,13.30
2010,07,07,01,56,13.30
2010,07,07,01,57,13.30
2010,07,07,01,58,13.30
2010,07,07,01,59,13.30
2010,07,07,02,00,13.30
2010,07,07,02,01,13.30
2010,07,07,02,02,13.30
2010,07,07,02,03,13.30
2010,07,07,02,04,13.30
2010,07,07,02,05,13.30
2010,07,07,02,06,13.20
2010,07,07,02,07,13.20
2010,07,07,02,08,13.20
2010,07,07,02,09,13.20
2010,07,07,02,10,13.20
2010,07,07,02,11,13.20
2010,07,07,02,12,13.20
2010,07,07,02,13,13.20
2010,07,07,02,14,13.10
2010,07,07,02,15,13.10
2010,07,07,02,16,13.10
2010,07,07,02,17,13.10
2010,07,07,02,18,13.10
2010,07,07,02,19,13.10
2010,07,07,02,20,13.10
2010,07,07,02,21,13.10
2010,07,07,02,22,13.00
2010,07,07,02,23,13.00
2010,07,07,02,24,13.00
2010,07,07,02,25,13.00
2010,07,07,02,26,13.00
2010,07,07,02,27,13.00
2010,07,07,02,28,13.00
2010,07,07,02,29,13.00
2010,07,07,02,30,13.00
2010,07,07,02,31,12.90
2010,07,07,02,32,12.90
2010,07,07,02,33,12.90
2010,07,07,02,34,12.90
2010,07,07,02,35,12.90
2010,07,07,02,36,12.90
2010,07,07,02,37,12.90
2010,07,07,02,38,12.90
2010,07,07,02,39,12.90
2010,07,07,02,40,12.90
2010,07,07,02,41,12.90
2010,07,07,02,42,12.90
2010,07,07,02,43,12.90
2010,07,07,02,44,12.90
2010,07,07,02,45,12.90
2010,07,07,02,46,12.90
2010,07,07,02,47,12.80
2010,07,07,02,48,12.80
2010,07,07,02,49,12.80
2010,07,07,02,50,12.80
2010,07,07,02,51,12.80
2010,07,07,02,52,12.80
2010,07,07,02,53,12.80
2010,07,07,02,54,12.80
2010,07,07,02,55,12.80
2010,07,07,02,56,12.80
2010,07,07,02,57,12.70
2010,07,07,02,58,12.70
2010,07,07,02,59,12.70
2010,07,07,03,00,12.70
2010,07,07,03,01,12.70
2010,07,07,03,02,12.70
2010,07,07,03,03,12.70
2010,07,07,03,04,12.70
2010,07,07,03,05,12.70
2010,07,07,03,06,12.70
2010,07,07,03,07,12.70
2010,07,07,03,08,12.80
2010,07,07,03,09,12.80
2010,07,07,03,10,12.80
2010,07,07,03,11,12.80
2010,07,07,03,12,12.80
2010,07,07,03,13,12.80
2010,07,07,03,14,12.80
2010,07,07,03,15,12.80
2010,07,07,03,16,12.80
2010,07,07,03,17,12.80
2010,07,07,03,18,12.70
2010,07,07,03,19,12.70
2010,07,07,03,20,12.70
2010,07,07,03,21,12.70
2010,07,07,03,22,12.70
2010,07,07,03,23,12.70
2010,07,07,03,24,12.70
2010,07,07,03,25,12.70
2010,07,07,03,26,12.70
2010,07,07,03,27,12.70
2010,07,07,03,28,12.70
2010,07,07,03,29,12.70
2010,07,07,03,30,12.70
2010,07,07,03,31,12.60
2010,07,07,03,32,12.60
2010,07,07,03,33,12.60
2010,07,07,03,34,12.50
2010,07,07,03,35,12.50
2010,07,07,03,36,12.50
2010,07,07,03,37,12.40
2010,07,07,03,38,12.40
2010,07,07,03,39,12.40
2010,07,07,03,40,12.40
2010,07,07,03,41,12.30
2010,07,07,03,42,12.30
2010,07,07,03,43,12.30
2010,07,07,03,44,12.30
2010,07,07,03,45,12.30
2010,07,07,03,46,12.30
2010,07,07,03,47,12.30
2010,07,07,03,48,12.30
2010,07,07,03,49,12.30
2010,07,07,03,50,12.30
2010,07,07,03,51,12.30
2010,07,07,03,52,12.40
2010,07,07,03,53,12.40
2010,07,07,03,54,12.40
2010,07,07,03,55,12.40
2010,07,07,03,56,12.40
2010,07,07,03,57,12.40
2010,07,07,03,58,12.40
2010,07,07,03,59,12.40
2010,07,07,04,00,12.40
2010,07,07,04,01,12.40
2010,07,07,04,02,12.40
2010,07,07,04,03,12.50
2010,07,07,04,04,12.50
2010,07,07,04,05,12.50
2010,07,07,04,06,12.50
2010,07,07,04,07,12.50
2010,07,07,04,08,12.50
2010,07,07,04,09,12.40
2010,07,07,04,10,12.40
2010,07,07,04,11,12.40
2010,07,07,04,12,12.40
2010,07,07,04,13,12.40
2010,07,07,04,14,12.40
2010,07,07,04,15,12.40
2010,07,07,04,16,12.40
2010,07,07,04,17,12.40
2010,07,07,04,18,12.40
2010,07,07,04,19,12.40
2010,07,07,04,20,12.40
2010,07,07,04,21,12.40
2010,07,07,04,22,12.40
2010,07,07,04,23,12.40
2010,07,07,04,24,12.40
2010,07,07,04,25,12.40
2010,07,07,04,26,12.40
2010,07,07,04,27,12.40
2010,07,07,04,28,12.40
2010,07,07,04,29,12.30
2010,07,07,04,30,12.30
2010,07,07,04,31,12.30
2010,07,07,04,32,12.30
2010,07,07,04,33,12.30
2010,07,07,04,34,12.30
2010,07,07,04,35,12.30
2010,07,07,04,36,12.30
2010,07,07,04,37,12.30
2010,07,07,04,38,12.30
2010,07,07,04,39,12.30
2010,07,07,04,40,12.30
2010,07,07,04,41,12.30
2010,07,07,04,42,12.30
2010,07,07,04,43,12.30
2010,07,07,04,44,12.30
2010,07,07,04,45,12.30
2010,07,07,04,46,12.30
2010,07,07,04,47,12.30
2010,07,07,04,48,12.20
2010,07,07,04,49,12.20
2010,07,07,04,50,12.20
2010,07,07,04,51,12.30
2010,07,07,04,52,12.30
2010,07,07,04,53,12.30
2010,07,07,04,54,12.30
2010,07,07,04,55,12.30
2010,07,07,04,56,12.30
2010,07,07,04,57,12.30
2010,07,07,04,58,12.30
2010,07,07,04,59,12.20
2010,07,07,05,00,12.20
2010,07,07,05,01,12.20
2010,07,07,05,02,12.20
2010,07,07,05,03,12.20
2010,07,07,05,04,12.20
2010,07,07,05,05,12.20
2010,07,07,05,06,12.20
2010,07,07,05,07,12.20
2010,07,07,05,08,12.20
2010,07,07,05,09,12.20
2010,07,07,05,10,12.20
2010,07,07,05,11,12.20
2010,07,07,05,12,12.10
2010,07,07,05,13,12.10
2010,07,07,05,14,12.10
2010,07,07,05,15,12.10
2010,07,07,05,16,12.10
2010,07,07,05,17,12.10
2010,07,07,05,18,12.10
2010,07,07,05,19,12.10
2010,07,07,05,20,12.10
2010,07,07,05,21,12.10
2010,07,07,05,22,12.10
2010,07,07,05,23,12.10
2010,07,07,05,24,12.10
2010,07,07,05,25,12.10
2010,07,07,05,26,12.10
2010,07,07,05,27,12.10
2010,07,07,05,28,12.10
2010,07,07,05,29,12.10
2010,07,07,05,30,12.10
2010,07,07,05,31,12.10
2010,07,07,05,32,12.10
2010,07,07,05,33,12.00
2010,07,07,05,34,12.00
2010,07,07,05,35,12.00
2010,07,07,05,36,12.00
2010,07,07,05,37,12.00
2010,07,07,05,38,12.00
2010,07,07,05,39,12.00
2010,07,07,05,40,12.00
2010,07,07,05,41,12.00
2010,07,07,05,42,12.00
2010,07,07,05,43,12.00
2010,07,07,05,44,12.00
2010,07,07,05,45,12.10
2010,07,07,05,46,12.10
2010,07,07,05,47,12.10
2010,07,07,05,48,12.10
2010,07,07,05,49,12.10
2010,07,07,05,50,12.10
2010,07,07,05,51,12.10
2010,07,07,05,52,12.10
2010,07,07,05,53,12.10
2010,07,07,05,54,12.10
2010,07,07,05,55,12.10
2010,07,07,05,56,12.10
2010,07,07,05,57,12.10
2010,07,07,05,58,12.10
2010,07,07,05,59,12.10
2010,07,07,06,00,12.10
2010,07,07,06,01,12.10
2010,07,07,06,02,12.20
2010,07,07,06,03,12.20
2010,07,07,06,04,12.20
2010,07,07,06,05,12.20
2010,07,07,06,06,12.20
2010,07,07,06,07,12.30
2010,07,07,06,08,12.30
2010,07,07,06,09,12.30
2010,07,07,06,10,12.30
2010,07,07,06,11,12.40
2010,07,07,06,12,12.40
2010,07,07,06,13,12.40
2010,07,07,06,14,12.50
2010,07,07,06,15,12.60
2010,07,07,06,16,12.60
2010,07,07,06,17,12.70
2010,07,07,06,18,12.70
2010,07,07,06,19,12.70
2010,07,07,06,20,12.70
2010,07,07,06,21,12.70
2010,07,07,06,22,12.70
2010,07,07,06,23,12.70
2010,07,07,06,24,12.70
2010,07,07,06,25,12.70
2010,07,07,06,26,12.80
2010,07,07,06,27,12.80
2010,07,07,06,28,12.80
2010,07,07,06,29,12.90
2010,07,07,06,30,12.90
2010,07,07,06,31,12.90
2010,07,07,06,32,13.00
2010,07,07,06,33,13.00
2010,07,07,06,34,13.10
2010,07,07,06,35,13.10
2010,07,07,06,36,13.20
2010,07,07,06,37,13.20
2010,07,07,06,38,13.30
2010,07,07,06,39,13.30
2010,07,07,06,40,13.30
2010,07,07,06,41,13.40
2010,07,07,06,42,13.40
2010,07,07,06,43,13.40
2010,07,07,06,44,13.50
2010,07,07,06,45,13.60
2010,07,07,06,46,13.60
2010,07,07,06,47,13.70
2010,07,07,06,48,13.80
2010,07,07,06,49,13.80
2010,07,07,06,50,13.90
2010,07,07,06,51,14.00
2010,07,07,06,52,14.10
2010,07,07,06,53,14.20
2010,07,07,06,54,14.20
2010,07,07,06,55,14.30
2010,07,07,06,56,14.40
2010,07,07,06,57,14.50
2010,07,07,06,58,14.50
2010,07,07,06,59,14.60
2010,07,07,07,00,14.70
2010,07,07,07,01,14.70
2010,07,07,07,02,14.80
2010,07,07,07,03,14.90
2010,07,07,07,04,15.00
2010,07,07,07,05,15.00
2010,07,07,07,06,15.00
2010,07,07,07,07,15.00
2010,07,07,07,08,15.10
2010,07,07,07,09,15.20
2010,07,07,07,10,15.30
2010,07,07,07,11,15.30
2010,07,07,07,12,15.40
2010,07,07,07,13,15.50
2010,07,07,07,14,15.60
2010,07,07,07,15,15.60
2010,07,07,07,16,15.70
2010,07,07,07,17,15.80
2010,07,07,07,18,15.90
2010,07,07,07,19,16.00
2010,07,07,07,20,16.10
2010,07,07,07,21,16.20
2010,07,07,07,22,16.30
2010,07,07,07,23,16.30
2010,07,07,07,24,16.40
2010,07,07,07,25,16.50
2010,07,07,07,26,16.50
2010,07,07,07,27,16.60
2010,07,07,07,28,16.70
2010,07,07,07,29,16.80
2010,07,07,07,30,16.80
2010,07,07,07,31,16.80
2010,07,07,07,32,16.90
2010,07,07,07,33,16.90
2010,07,07,07,34,16.90
2010,07,07,07,35,17.00
2010,07,07,07,36,17.10
2010,07,07,07,37,17.20
2010,07,07,07,38,17.30
2010,07,07,07,39,17.40
2010,07,07,07,40,17.50
2010,07,07,07,41,17.60
2010,07,07,07,42,17.80
2010,07,07,07,43,17.90
2010,07,07,07,44,18.00
2010,07,07,07,45,18.10
2010,07,07,07,46,18.30
2010,07,07,07,47,18.40
2010,07,07,07,48,18.50
2010,07,07,07,49,18.60
2010,07,07,07,50,18.70
2010,07,07,07,51,18.80
2010,07,07,07,52,18.80
2010,07,07,07,53,18.90
2010,07,07,07,54,18.90
2010,07,07,07,55,19.00
2010,07,07,07,56,19.10
2010,07,07,07,57,19.20
2010,07,07,07,58,19.30
2010,07,07,07,59,19.40
2010,07,07,08,00,19.50
2010,07,07,08,01,19.60
2010,07,07,08,02,19.70
2010,07,07,08,03,19.80
2010,07,07,08,04,19.80
2010,07,07,08,05,19.90
2010,07,07,08,06,20.00
2010,07,07,08,07,20.00
2010,07,07,08,08,20.10
2010,07,07,08,09,20.10
2010,07,07,08,10,20.20
2010,07,07,08,11,20.20
2010,07,07,08,12,20.30
2010,07,07,08,13,20.30
2010,07,07,08,14,20.40
2010,07,07,08,15,20.40
2010,07,07,08,16,20.50
2010,07,07,08,17,20.60
2010,07,07,08,18,20.70
2010,07,07,08,19,20.80
2010,07,07,08,20,20.80
2010,07,07,08,21,20.90
2010,07,07,08,22,21.00
2010,07,07,08,23,21.10
2010,07,07,08,24,21.10
2010,07,07,08,25,21.20
2010,07,07,08,26,21.30
2010,07,07,08,27,21.40
2010,07,07,08,28,21.40
2010,07,07,08,29,21.50
2010,07,07,08,30,21.50
2010,07,07,08,31,21.60
2010,07,07,08,32,21.60
2010,07,07,08,33,21.60
2010,07,07,08,34,21.70
2010,07,07,08,35,21.70
2010,07,07,08,36,21.70
2010,07,07,08,37,21.80
2010,07,07,08,38,21.80
2010,07,07,08,39,21.80
2010,07,07,08,40,21.90
2010,07,07,08,41,22.00
2010,07,07,08,42,22.10
2010,07,07,08,43,22.20
2010,07,07,08,44,22.30
2010,07,07,08,45,22.30
2010,07,07,08,46,22.40
2010,07,07,08,47,22.60
2010,07,07,08,48,22.70
2010,07,07,08,49,22.80
2010,07,07,08,50,22.90
2010,07,07,08,51,22.90
2010,07,07,08,52,23.00
2010,07,07,08,53,23.10
2010,07,07,08,54,23.20
2010,07,07,08,55,23.30
2010,07,07,08,56,23.30
2010,07,07,08,57,23.40
2010,07,07,08,58,23.40
2010,07,07,08,59,23.40
2010,07,07,09,00,23.50
2010,07,07,09,01,23.60
2010,07,07,09,02,23.60
2010,07,07,09,03,23.60
2010,07,07,09,04,23.70
2010,07,07,09,05,23.70
2010,07,07,09,06,23.80
2010,07,07,09,07,23.90
2010,07,07,09,08,24.00
2010,07,07,09,09,24.00
2010,07,07,09,10,24.10
2010,07,07,09,11,24.10
2010,07,07,09,12,24.20
2010,07,07,09,13,24.20
2010,07,07,09,14,24.30
2010,07,07,09,15,24.30
2010,07,07,09,16,24.30
2010,07,07,09,17,24.30
2010,07,07,09,18,24.40
2010,07,07,09,19,24.40
2010,07,07,09,20,24.50
2010,07,07,09,21,24.50
2010,07,07,09,22,24.50
2010,07,07,09,23,24.40
2010,07,07,09,24,24.50
2010,07,07,09,25,24.40
2010,07,07,09,26,24.40
2010,07,07,09,27,24.40
2010,07,07,09,28,24.40
2010,07,07,09,29,24.40
2010,07,07,09,30,24.50
2010,07,07,09,31,24.50
2010,07,07,09,32,24.50
2010,07,07,09,33,24.50
2010,07,07,09,34,24.50
2010,07,07,09,35,24.50
2010,07,07,09,36,24.50
2010,07,07,09,37,24.50
2010,07,07,09,38,24.50
2010,07,07,09,39,24.60
2010,07,07,09,40,24.70
2010,07,07,09,41,24.70
2010,07,07,09,42,24.80
2010,07,07,09,43,24.80
2010,07,07,09,44,24.80
2010,07,07,09,45,24.90
2010,07,07,09,46,24.90
2010,07,07,09,47,24.90
2010,07,07,09,48,24.80
2010,07,07,09,49,24.70
2010,07,07,09,50,24.60
2010,07,07,09,51,24.60
2010,07,07,09,52,24.60
2010,07,07,09,53,24.50
2010,07,07,09,54,24.50
2010,07,07,09,55,24.50
2010,07,07,09,56,24.50
2010,07,07,09,57,24.60
2010,07,07,09,58,24.50
2010,07,07,09,59,24.40
2010,07,07,10,00,24.40
2010,07,07,10,01,24.30
2010,07,07,10,02,24.20
2010,07,07,10,03,24.10
2010,07,07,10,04,24.10
2010,07,07,10,05,24.10
2010,07,07,10,06,24.20
2010,07,07,10,07,24.20
2010,07,07,10,08,24.30
2010,07,07,10,09,24.30
2010,07,07,10,10,24.20
2010,07,07,10,11,24.10
2010,07,07,10,12,24.10
2010,07,07,10,13,24.10
2010,07,07,10,14,24.10
2010,07,07,10,15,24.10
2010,07,07,10,16,24.20
2010,07,07,10,17,24.30
2010,07,07,10,18,24.50
2010,07,07,10,19,24.60
2010,07,07,10,20,24.80
2010,07,07,10,21,25.00
2010,07,07,10,22,25.10
2010,07,07,10,23,25.20
2010,07,07,10,24,25.30
2010,07,07,10,25,25.50
2010,07,07,10,26,25.60
2010,07,07,10,27,25.70
2010,07,07,10,28,25.70
2010,07,07,10,29,25.70
2010,07,07,10,30,25.70
2010,07,07,10,31,25.70
2010,07,07,10,32,25.70
2010,07,07,10,33,25.80
2010,07,07,10,34,25.80
2010,07,07,10,35,25.90
2010,07,07,10,36,26.00
2010,07,07,10,37,26.10
2010,07,07,10,38,26.20
2010,07,07,10,39,26.30
2010,07,07,10,40,26.30
2010,07,07,10,41,26.40
2010,07,07,10,42,26.40
2010,07,07,10,43,26.40
2010,07,07,10,44,26.30
2010,07,07,10,45,26.30
2010,07,07,10,46,26.40
2010,07,07,10,47,26.50
2010,07,07,10,48,26.70
2010,07,07,10,49,26.80
2010,07,07,10,50,27.00
2010,07,07,10,51,27.10
2010,07,07,10,52,27.20
2010,07,07,10,53,27.30
2010,07,07,10,54,27.30
2010,07,07,10,55,27.30
2010,07,07,10,56,27.30
2010,07,07,10,57,27.20
2010,07,07,10,58,27.20
2010,07,07,10,59,27.20
2010,07,07,11,00,27.20
2010,07,07,11,01,27.20
2010,07,07,11,02,27.20
2010,07,07,11,03,27.30
2010,07,07,11,04,27.40
2010,07,07,11,05,27.40
2010,07,07,11,06,27.50
2010,07,07,11,07,27.50
2010,07,07,11,08,27.50
2010,07,07,11,09,27.50
2010,07,07,11,10,27.40
2010,07,07,11,11,27.30
2010,07,07,11,12,27.20
2010,07,07,11,13,27.20
2010,07,07,11,14,27.20
2010,07,07,11,15,27.20
2010,07,07,11,16,27.20
2010,07,07,11,17,27.30
2010,07,07,11,18,27.30
2010,07,07,11,19,27.30
2010,07,07,11,20,27.40
2010,07,07,11,21,27.50
2010,07,07,11,22,27.50
2010,07,07,11,23,27.50
2010,07,07,11,24,27.60
2010,07,07,11,25,27.70
2010,07,07,11,26,27.80
2010,07,07,11,27,27.80
2010,07,07,11,28,27.80
2010,07,07,11,29,27.80
2010,07,07,11,30,27.90
2010,07,07,11,31,27.90
2010,07,07,11,32,27.90
2010,07,07,11,33,27.90
2010,07,07,11,34,28.00
2010,07,07,11,35,28.10
2010,07,07,11,36,28.20
2010,07,07,11,37,28.40
2010,07,07,11,38,28.50
2010,07,07,11,39,28.60
2010,07,07,11,40,28.60
2010,07,07,11,41,28.70
2010,07,07,11,42,28.70
2010,07,07,11,43,28.70
2010,07,07,11,44,28.60
2010,07,07,11,45,28.60
2010,07,07,11,46,28.60
2010,07,07,11,47,28.50
2010,07,07,11,48,28.40
2010,07,07,11,49,28.40
2010,07,07,11,50,28.40
2010,07,07,11,51,28.40
2010,07,07,11,52,28.40
2010,07,07,11,53,28.30
2010,07,07,11,54,28.30
2010,07,07,11,55,28.30
2010,07,07,11,56,28.40
2010,07,07,11,57,28.40
2010,07,07,11,58,28.50
2010,07,07,11,59,28.60
2010,07,07,12,00,28.60
2010,07,07,12,01,28.50
2010,07,07,12,02,28.40
2010,07,07,12,03,28.50
2010,07,07,12,04,28.50
2010,07,07,12,05,28.50
2010,07,07,12,06,28.40
2010,07,07,12,07,28.40
2010,07,07,12,08,28.50
2010,07,07,12,09,28.50
2010,07,07,12,10,28.60
2010,07,07,12,11,28.60
2010,07,07,12,12,28.60
2010,07,07,12,13,28.70
2010,07,07,12,14,28.70
2010,07,07,12,15,28.70
2010,07,07,12,16,28.70
2010,07,07,12,17,28.70
2010,07,07,12,18,28.70
2010,07,07,12,19,28.60
2010,07,07,12,20,28.60
2010,07,07,12,21,28.70
2010,07,07,12,22,28.70
2010,07,07,12,23,28.80
2010,07,07,12,24,28.80
2010,07,07,12,25,28.80
2010,07,07,12,26,28.70
2010,07,07,12,27,28.50
2010,07,07,12,28,28.40
2010,07,07,12,29,28.30
2010,07,07,12,30,28.30
2010,07,07,12,31,28.40
2010,07,07,12,32,28.50
2010,07,07,12,33,28.60
2010,07,07,12,34,28.70
2010,07,07,12,35,28.80
2010,07,07,12,36,28.80
2010,07,07,12,37,28.90
2010,07,07,12,38,28.90
2010,07,07,12,39,29.00
2010,07,07,12,40,29.20
2010,07,07,12,41,29.30
2010,07,07,12,42,29.30
2010,07,07,12,43,29.30
2010,07,07,12,44,29.30
2010,07,07,12,45,29.40
2010,07,07,12,46,29.40
2010,07,07,12,47,29.30
2010,07,07,12,48,29.30
2010,07,07,12,49,29.30
2010,07,07,12,50,29.30
2010,07,07,12,51,29.30
2010,07,07,12,52,29.30
2010,07,07,12,53,29.40
2010,07,07,12,54,29.40
2010,07,07,12,55,29.40
2010,07,07,12,56,29.40
2010,07,07,12,57,29.40
2010,07,07,12,58,29.50
2010,07,07,12,59,29.50
2010,07,07,13,00,29.50
2010,07,07,13,01,29.60
2010,07,07,13,02,29.60
2010,07,07,13,03,29.60
2010,07,07,13,04,29.60
2010,07,07,13,05,29.60
2010,07,07,13,06,29.60
2010,07,07,13,07,29.60
2010,07,07,13,08,29.50
2010,07,07,13,09,29.40
2010,07,07,13,10,29.20
2010,07,07,13,11,29.10
2010,07,07,13,12,29.10
2010,07,07,13,13,29.10
2010,07,07,13,14,29.20
2010,07,07,13,15,29.10
2010,07,07,13,16,29.10
2010,07,07,13,17,29.10
2010,07,07,13,18,29.10
2010,07,07,13,19,29.10
2010,07,07,13,20,29.10
2010,07,07,13,21,29.10
2010,07,07,13,22,29.10
2010,07,07,13,23,29.00
2010,07,07,13,24,28.80
2010,07,07,13,25,28.80
2010,07,07,13,26,28.90
2010,07,07,13,27,28.90
2010,07,07,13,28,29.00
2010,07,07,13,29,28.90
2010,07,07,13,30,28.90
2010,07,07,13,31,28.90
2010,07,07,13,32,28.90
2010,07,07,13,33,28.80
2010,07,07,13,34,28.70
2010,07,07,13,35,28.70
2010,07,07,13,36,28.60
2010,07,07,13,37,28.70
2010,07,07,13,38,28.70
2010,07,07,13,39,28.80
2010,07,07,13,40,28.90
2010,07,07,13,41,28.90
2010,07,07,13,42,29.00
2010,07,07,13,43,29.10
2010,07,07,13,44,29.20
2010,07,07,13,45,29.10
2010,07,07,13,46,29.10
2010,07,07,13,47,29.00
2010,07,07,13,48,28.90
2010,07,07,13,49,28.90
2010,07,07,13,50,29.10
2010,07,07,13,51,29.10
2010,07,07,13,52,29.20
2010,07,07,13,53,29.20
2010,07,07,13,54,29.30
2010,07,07,13,55,29.40
2010,07,07,13,56,29.50
2010,07,07,13,57,29.60
2010,07,07,13,58,29.60
2010,07,07,13,59,29.50
2010,07,07,14,00,29.40
2010,07,07,14,01,29.40
2010,07,07,14,02,29.40
2010,07,07,14,03,29.50
2010,07,07,14,04,29.60
2010,07,07,14,05,29.40
2010,07,07,14,06,29.40
2010,07,07,14,07,29.40
2010,07,07,14,08,29.40
2010,07,07,14,09,29.50
2010,07,07,14,10,29.50
2010,07,07,14,11,29.50
2010,07,07,14,12,29.60
2010,07,07,14,13,29.70
2010,07,07,14,14,29.80
2010,07,07,14,15,29.90
2010,07,07,14,16,30.00
2010,07,07,14,17,30.10
2010,07,07,14,18,30.10
2010,07,07,14,19,30.20
2010,07,07,14,20,30.20
2010,07,07,14,21,30.20
2010,07,07,14,22,30.30
2010,07,07,14,23,30.40
2010,07,07,14,24,30.60
2010,07,07,14,25,30.60
2010,07,07,14,26,30.60
2010,07,07,14,27,30.60
2010,07,07,14,28,30.70
2010,07,07,14,29,30.70
2010,07,07,14,30,30.70
2010,07,07,14,31,30.70
2010,07,07,14,32,30.70
2010,07,07,14,33,30.70
2010,07,07,14,34,30.70
2010,07,07,14,35,30.70
2010,07,07,14,36,30.60
2010,07,07,14,37,30.50
2010,07,07,14,38,30.30
2010,07,07,14,39,30.30
2010,07,07,14,40,30.20
2010,07,07,14,41,30.20
2010,07,07,14,42,30.20
2010,07,07,14,43,30.10
2010,07,07,14,44,30.10
2010,07,07,14,45,30.00
2010,07,07,14,46,30.00
2010,07,07,14,47,30.00
2010,07,07,14,48,30.10
2010,07,07,14,49,30.20
2010,07,07,14,50,30.30
2010,07,07,14,51,30.50
2010,07,07,14,52,30.70
2010,07,07,14,53,30.80
2010,07,07,14,54,30.80
2010,07,07,14,55,30.80
2010,07,07,14,56,30.80
2010,07,07,14,57,30.80
2010,07,07,14,58,30.80
2010,07,07,14,59,30.70
2010,07,07,15,00,30.70
2010,07,07,15,01,30.70
2010,07,07,15,02,30.70
2010,07,07,15,03,30.60
2010,07,07,15,04,30.50
2010,07,07,15,05,30.50
2010,07,07,15,06,30.60
2010,07,07,15,07,30.60
2010,07,07,15,08,30.60
2010,07,07,15,09,30.60
2010,07,07,15,10,30.60
2010,07,07,15,11,30.70
2010,07,07,15,12,30.80
2010,07,07,15,13,30.80
2010,07,07,15,14,30.80
2010,07,07,15,15,30.80
2010,07,07,15,16,30.80
2010,07,07,15,17,30.80
2010,07,07,15,18,30.80
2010,07,07,15,19,30.80
2010,07,07,15,20,30.80
2010,07,07,15,21,30.80
2010,07,07,15,22,30.70
2010,07,07,15,23,30.60
2010,07,07,15,24,30.60
2010,07,07,15,25,30.60
2010,07,07,15,26,30.70
2010,07,07,15,27,30.70
2010,07,07,15,28,30.80
2010,07,07,15,29,30.90
2010,07,07,15,30,31.00
2010,07,07,15,31,31.00
2010,07,07,15,32,31.00
2010,07,07,15,33,30.90
2010,07,07,15,34,30.90
2010,07,07,15,35,30.90
2010,07,07,15,36,30.90
2010,07,07,15,37,31.00
2010,07,07,15,38,31.00
2010,07,07,15,39,31.10
2010,07,07,15,40,31.30
2010,07,07,15,41,31.40
2010,07,07,15,42,31.50
2010,07,07,15,43,31.60
2010,07,07,15,44,31.70
2010,07,07,15,45,31.80
2010,07,07,15,46,31.80
2010,07,07,15,47,31.70
2010,07,07,15,48,31.60
2010,07,07,15,49,31.60
2010,07,07,15,50,31.60
2010,07,07,15,51,31.60
2010,07,07,15,52,31.50
2010,07,07,15,53,31.50
2010,07,07,15,54,31.40
2010,07,07,15,55,31.40
2010,07,07,15,56,31.40
2010,07,07,15,57,31.30
2010,07,07,15,58,31.30
2010,07,07,15,59,31.30
2010,07,07,16,00,31.40
2010,07,07,16,01,31.40
2010,07,07,16,02,31.40
2010,07,07,16,03,31.30
2010,07,07,16,04,31.20
2010,07,07,16,05,31.20
2010,07,07,16,06,31.20
2010,07,07,16,07,31.20
2010,07,07,16,08,31.20
2010,07,07,16,09,31.20
2010,07,07,16,10,31.30
2010,07,07,16,11,31.30
2010,07,07,16,12,31.30
2010,07,07,16,13,31.30
2010,07,07,16,14,31.30
2010,07,07,16,15,31.30
2010,07,07,16,16,31.30
2010,07,07,16,17,31.30
2010,07,07,16,18,31.30
2010,07,07,16,19,31.30
2010,07,07,16,20,31.30
2010,07,07,16,21,31.30
2010,07,07,16,22,31.40
2010,07,07,16,23,31.40
2010,07,07,16,24,31.30
2010,07,07,16,25,31.20
2010,07,07,16,26,31.20
2010,07,07,16,27,31.10
2010,07,07,16,28,31.10
2010,07,07,16,29,31.00
2010,07,07,16,30,31.00
2010,07,07,16,31,30.90
2010,07,07,16,32,31.00
2010,07,07,16,33,31.00
2010,07,07,16,34,31.00
2010,07,07,16,35,31.00
2010,07,07,16,36,31.10
2010,07,07,16,37,31.10
2010,07,07,16,38,31.10
2010,07,07,16,39,31.20
2010,07,07,16,40,31.30
2010,07,07,16,41,31.30
2010,07,07,16,42,31.30
2010,07,07,16,43,31.30
2010,07,07,16,44,31.30
2010,07,07,16,45,31.30
2010,07,07,16,46,31.40
2010,07,07,16,47,31.40
2010,07,07,16,48,31.40
2010,07,07,16,49,31.50
2010,07,07,16,50,31.60
2010,07,07,16,51,31.60
2010,07,07,16,52,31.60
2010,07,07,16,53,31.60
2010,07,07,16,54,31.50
2010,07,07,16,55,31.40
2010,07,07,16,56,31.40
2010,07,07,16,57,31.30
2010,07,07,16,58,31.30
2010,07,07,16,59,31.30
2010,07,07,17,00,31.30
2010,07,07,17,01,31.30
2010,07,07,17,02,31.30
2010,07,07,17,03,31.30
2010,07,07,17,04,31.40
2010,07,07,17,05,31.40
2010,07,07,17,06,31.30
2010,07,07,17,07,31.30
2010,07,07,17,08,31.30
2010,07,07,17,09,31.30
2010,07,07,17,10,31.20
2010,07,07,17,11,31.20
2010,07,07,17,12,31.20
2010,07,07,17,13,31.30
2010,07,07,17,14,31.30
2010,07,07,17,15,31.40
2010,07,07,17,16,31.50
2010,07,07,17,17,31.50
2010,07,07,17,18,31.50
2010,07,07,17,19,31.50